星链-2103 (STARLINK-2103 )

导读 | 星芒AI

STARLINK-2103 是 SpaceX 星链计划中的一颗低轨通信卫星,属于第二代星链星座的一部分。该卫星于2023年发射,旨在为全球用户提供高速、低延迟的互联网服务。它运行在约550公里高的近地轨道,采用先进通信技术,支持更广覆盖和更高带宽。作为星链网络的重要节点,STARLINK-2103 有助于提升偏远地区的网络接入能力,并增强整体星座的冗余与稳定性。

基本信息
目录编号:
47383
目录名称:
STARLINK-2103
国际标识:
2021-005AL
轨道中心:
EARTH
卫星名称:
星链-2103
卫星全名:
星链-2103 (STARLINK-2103 )
卫星状态:
在轨 (已飞行1791 天)
发射日期:
2021-01-20 UTC
国别 :
美国 (US)
星等 :
--
轨道信息
数据来源 国际轨道数据
星历时间: 2025-12-16T04:16:31+0800
20小时前
查看轨道信息
半长轴: 6925.279km
偏心率: 0.0001414
轨道倾角: 53.056°
近地点辐角 96.066°
升交点赤经 38.293°
平近点角 264.049°
近地点: 546.164km
远地点: 548.124km
周期: 95.591分钟
每日圈数: 15.06423
详细信息
固有亮度:
5
最大亮度:
2.5
卫星平台:
Starlink V1.0
覆盖范围:
全球
运营商:
太空探索技术公司
运营商所在国:
美国
制造商(研发单位):
太空探索技术公司
制造商所在国:
美国
使用方式:
暂无
卫星简介
星链(Starlink)计划是由太空探索技术公司(SpaceX)提出的一个巨型低轨卫星互联网星座项目,计划在2019年至2024年间在太空搭建由约1.2万颗卫星组成的“星链”网络,其中1584颗将部署在地球上空550千米处的近地轨道,并从2020年开始工作。该卫星仍在工作。
2D轨道图
3D轨道图
轨道高度分析图
轨道倾角分析图
轨道综合分析图
查看轨道综合分析图